Regional Weather Roundup
Issued by NWS

Home | Current Version | Previous Version | Text Only | Print | Product List | Glossary Off
Versions: 1 2 3 4 5 6 7 8 9 10 11 12 13 14 15 16 17 18 19 20 21 22 23 24 25 26 27 28 29 30 31 32 33 34 35 36 37 38 39 40 41 42 43 44 45 46 47 48 49 50

468
ASUS43 KOAX 270702
RWRNE

WEATHER ROUNDUP FOR NEBRASKA
NATIONAL WEATHER SERVICE OMAHA NE
200 AM CDT WED JUL 27 2016

NOTES: SATELLITE DATA IS BEING USED TO AUGMENT CLOUD COVER ABOVE
       12000 FEET.
       "FAIR" INDICATES FEW OR NO CLOUDS BELOW 12,000 FEET WITH NO
       SIGNIFICANT WEATHER AND/OR OBSTRUCTIONS TO VISIBILITY.

  * THESE STATIONS DO NOT REPORT WEATHER SUCH AS RAIN...SNOW OR FOG.

NEZ001>004-019>022-054>056-270800-
NEBRASKA PANHANDLE

CITY           SKY/WX    TMP DP  RH WIND       PRES   REMARKS
SCOTTSBLUFF    CLOUDY    68  56  65 N8        30.12R THUNDER
ALLIANCE       PTCLDY    63  56  78 SE6       30.09R
CHADRON        CLEAR     63  59  87 CALM      30.06S
KIMBALL        CLOUDY    66  45  46 CALM      30.15S
SIDNEY         CLOUDY    71  49  45 S8        30.11F
$$

NEZ057>060-069>072-079>082-270800-
SOUTHWEST NEBRASKA

CITY           SKY/WX    TMP DP  RH WIND       PRES   REMARKS
NORTH PLATTE   MOCLDY    63  59  87 E12       30.13R
IMPERIAL       PTCLDY    67  59  75 NE13      30.11R
LEXINGTON      CLOUDY    63  61  93 E16       30.15F
MCCOOK         LGT RAIN  65  59  81 NE28G41   30.11R
OGALLALA       MOCLDY    66  59  77 E16       30.09R
$$

NEZ005>010-023>029-035>040-094-270800-
NORTH CENTRAL NEBRASKA

CITY           SKY/WX    TMP DP  RH WIND       PRES   REMARKS
VALENTINE      CLOUDY    65  59  81 MISG      30.01R
AINSWORTH      CLOUDY    62  61  98 E17G24    30.01R
BROKEN BOW     CLOUDY    63  60  90 NE10G20   30.08F
O`NEILL        TSTM      65  62  90 N21       30.12F
ORD            RAIN      64  60  87 N17G25    30.13F
THEDFORD       CLOUDY    64  61  90 SE6       30.09S
$$

NEZ041-046>049-061>064-073>077-083>087-270800-
SOUTH CENTRAL NEBRASKA

CITY           SKY/WX    TMP DP  RH WIND       PRES   REMARKS
GRAND ISLAND   LGT RAIN  70  60  70 NW26G45   30.14R
AURORA         MOCLDY    68  67  96 W6        30.08R
HASTINGS       CLOUDY    71  61  70 NW30G40   30.15R
HEBRON         CLOUDY    68  65  91 CALM      30.03R
HOLDREGE       CLOUDY    63  61  92 N22G40    30.17R
YORK           CLOUDY    70  66  88 CALM      30.05R
$$

NEZ011>018-030>034-042>045-270800-
NORTHEAST NEBRASKA

CITY           SKY/WX    TMP DP  RH WIND       PRES   REMARKS
NORFOLK        CLOUDY    73  63  70 VRB3      30.05R
ALBION         LGT RAIN  70  64  82 W13G21    30.11R
BLAIR          PTCLDY    71  66  85 S5        30.02R
FREMONT        CLOUDY    72  65  79 SE3       30.01S
TEKAMAH        MOCLDY    68  65  90 CALM      30.00S
WAYNE          CLOUDY    71  67  87 SW7       30.04R
$$

NEZ050>053-065>068-078-088>093-270800-
SOUTHEAST NEBRASKA

CITY           SKY/WX    TMP DP  RH WIND       PRES   REMARKS
LINCOLN        MOCLDY    71  65  81 S3        30.02S
OMAHA EPPLEY   PTCLDY    74  66  76 SE7       30.01R
BEATRICE       CLOUDY    69  65  89 CALM      30.03R
FALLS CITY     CLEAR     69  68  96 CALM      29.99F
NEBRASKA CITY  CLEAR     70  69  96 S3        30.02R
PLATTSMOUTH    CLEAR     70  68  93 SE5       30.01S
$$

NEZ044-045-051>053-067-270800-
OMAHA AREA

CITY           SKY/WX    TMP DP  RH WIND       PRES   REMARKS
OMAHA EPPLEY   PTCLDY    74  66  76 SE7       30.01R
BLAIR          PTCLDY    71  66  85 S5        30.02R
FREMONT        CLOUDY    72  65  79 SE3       30.01S
MILLARD        PTCLDY    71  68  90 CALM      30.01S
OFFUTT AFB     CLEAR     65  65 100 E3        30.00S
PLATTSMOUTH    CLEAR     70  68  93 SE5       30.01S
WAHOO          FAIR      69  65  89 CALM      30.01R
$$




USA.gov is the U.S. government's official web portal to all federal, state and local government web resources and services.